Clayton Lake, ME

4:07 PM EDT on March 30, 2017 (GMT -0400)
Clayton Lake

Weather History for K40B - April, 2013

Change the Weather History Date:

Wednesday, April 17, 2013

  Actual Average Record
Temperature  
Mean Temperature 37 °F -  
Max Temperature 49 °F 46 °F 69 °F (2016)
Min Temperature 27 °F 25 °F 5 °F (2003)
Degree Days  
Heating Degree Days 28    
Moisture  
Dew Point 22 °F    
Average Humidity 56    
Maximum Humidity 84    
Minimum Humidity 19    
Precipitation  
Precipitation 0.02 in - - ()
Sea Level Pressure  
Sea Level Pressure 30.13 in    
Wind  
Wind Speed 5 mph (WNW)    
Max Wind Speed 13 mph    
Max Gust Speed 26 mph    
Averages and records for this station are not official NWS values.
T = Trace of Precipitation, MM = Missing Value Source: NWS Daily Summary

Daily Weather History Graph

Daily Weather History Graph

Search for Another Location

Airport or City:

Trip Planner

Search our weather history database for the weather conditions in past years. The results will help you decide how hot, cold, wet, or windy it might be!

Date:

Astronomy

Apr. 17, 2013 Rise Set
Actual Time 5:46 AM EDT 7:29 PM EDT
Civil Twilight 5:15 AM EDT 8:01 PM EDT
Nautical Twilight 4:36 AM EDT 8:40 PM EDT
Astronomical Twilight 3:53 AM EDT 9:22 PM EDT
Moon 10:50 AM EDT (4/17) 1:12 AM EDT (4/17)
Length of Visible Light 14h 46m
Length of Day
13h 42m
Waxing Crescent, 42% of the Moon is Illuminated
Apr 17
Waxing Crescent
Apr 18
First Quarter
Apr 25
Full
May 2
Last Quarter
May 9
New

Hourly Weather History & Observations

Time (EDT) Temp. Windchill Dew Point Humidity Pressure Visibility Wind Dir Wind Speed Gust Speed Precip Events Conditions
12:25 AM - - - N/A% 29.90 in - Variable 3.5 mph - N/A   Unknown
1:25 AM 37.2 °F 33.6 °F 32.7 °F 84% 29.91 in - Variable 4.6 mph 13.8 mph 0.00 in   Unknown
2:25 AM 36.1 °F 30.6 °F 31.6 °F 84% 29.91 in - Variable 6.9 mph 13.8 mph N/A   Unknown
3:25 AM 35.6 °F 31.7 °F 31.1 °F 84% 29.92 in - Variable 4.6 mph 13.8 mph N/A   Unknown
4:25 AM 35.8 °F 31.9 °F 30.2 °F 80% 29.97 in - Variable 4.6 mph 12.7 mph N/A   Unknown
5:25 AM 35.4 °F 31.5 °F 29.8 °F 80% 30.00 in - Variable 4.6 mph - N/A   Unknown
6:25 AM 35.6 °F 29.9 °F 29.5 °F 78% 30.01 in - Variable 6.9 mph 17.3 mph N/A   Unknown
7:25 AM 37.2 °F 33.6 °F 30.0 °F 75% 30.05 in - Variable 4.6 mph 15.0 mph N/A   Unknown
8:25 AM 39.6 °F 34.0 °F 29.3 °F 67% 30.08 in - SW 8.1 mph 16.1 mph N/A   Unknown
9:25 AM 41.7 °F 37.3 °F 29.5 °F 62% 30.10 in - Variable 6.9 mph 17.3 mph N/A   Unknown
10:25 AM 43.5 °F 37.9 °F 28.8 °F 56% 30.12 in - WNW 10.4 mph 20.7 mph N/A   Unknown
11:25 AM 45.0 °F 39.7 °F 24.8 °F 45% 30.15 in - WNW 10.4 mph 26.5 mph N/A   Unknown
12:25 PM 46.9 °F - 22.1 °F 38% 30.16 in - Variable 4.6 mph 20.7 mph N/A   Unknown
1:25 PM 47.1 °F - 18.7 °F 32% 30.16 in - WNW 6.9 mph 17.3 mph N/A   Unknown
2:25 PM 47.1 °F - 15.4 °F 28% 30.18 in - NNW 6.9 mph 24.2 mph N/A   Unknown
3:25 PM 47.5 °F - 12.7 °F 25% 30.20 in - NW 9.2 mph 24.2 mph N/A   Unknown
5:25 PM 45.5 °F 39.6 °F 5.5 °F 19% 30.25 in - NW 12.7 mph 20.7 mph 0.00 in   Unknown
6:25 PM 43.5 °F 38.3 °F 9.7 °F 25% 30.28 in - NNW 9.2 mph 18.4 mph N/A   Unknown
7:25 PM 39.2 °F 35.9 °F 8.1 °F 28% 30.30 in - Variable 4.6 mph - N/A   Unknown
8:25 PM 32.2 °F - 14.7 °F 49% 30.33 in - Calm Calm - N/A   Unknown
9:25 PM 34.9 °F 30.8 °F 13.5 °F 41% 30.34 in - Variable 4.6 mph - 0.00 in   Unknown
10:25 PM 27.5 °F - 20.5 °F 75% 30.36 in - Calm Calm - N/A   Unknown
11:25 PM 27.5 °F - 20.8 °F 76% 30.39 in - Calm Calm - 0.00 in   Unknown